Simultaneous Nadir Overpasses (SNOs) Predictions

Prediction of SNOs between GOES-16 and TERRA Satellite Orbit:

Table of predicted SNOs for the next 14.0 days since TLE Epoch: 4/18/2020
Index Date Time (GOES-16) GOES-16 Lat,Lon TERRA Lat,Lon Distance(km) Time Diff (sec)
1 04/18/2020 03:42:06 -0.01, -75.16 -0.54, -77.57 274.62 80
2 04/20/2020 03:27:13 -0.01, -75.16 0.08, -74.61 62.75 80
3 04/22/2020 03:15:01 -0.01, -75.17 0.77, -71.65 400.68 80
4 04/22/2020 15:36:16 0.01, -75.20 0.34, -76.81 182.28 80
5 04/24/2020 15:26:43 0.01, -75.21 -0.30, -73.84 156.27 80
6 04/25/2020 03:48:06 -0.01, -75.19 -0.85, -79.02 436.18 80
7 04/26/2020 15:14:30 0.01, -75.23 -0.93, -70.88 494.95 80
8 04/27/2020 03:35:53 -0.01, -75.21 -0.21, -76.06 97.48 80
9 04/29/2020 03:21:00 -0.01, -75.22 0.44, -73.10 241.38 80
10 04/29/2020 15:42:15 0.00, -75.25 0.67, -78.25 341.58 80
11 05/01/2020 15:30:02 -0.00, -75.27 0.02, -75.29 2.75 80




NCC Satellite Simultaneous Nadir Overpasses (SNOs) Prediction Service
